{"data":{"norad_id":66786,"epoch":"2026-05-25T03:04:42.019104Z","epoch_age_seconds":64232,"freshness":"FRESH","line1":"1 66786U 25276EB  26145.12826411  .00005409  00000+0  45451-3 0  9997","line2":"2 66786  97.5234 216.5528 0014253 205.1909 154.8620 14.98623107 26673","mean_motion":14.98623107,"eccentricity":0.0014253,"inclination_deg":97.5234,"raan_deg":216.5528,"arg_perigee_deg":205.1909,"mean_anomaly_deg":154.862,"bstar":0.00045451,"rev_number":2667,"period_min":96.08820211525,"perigee_km":561.24481122841,"apogee_km":581.05444769435,"semimajor_km":6949.2866294614,"source":"CELESTRAK","updated_at":"2026-05-25T13:38:13.577180Z"}}